Flag for Gaza Strip Weather past 2 weeks in Khan Yunis, Gaza Strip

Now
75 °F

Clear.


Feels Like: 75 °F
Forecast: 76 / 86 °F
Wind: 3 mph from South

Location: El Arish

Current Time: Aug 30, 2014 at 1:21:09 AM

Latest Report: Aug 30, 2014 at 12:00 AM


Visibility: 10 mi

Pressure: 29.80 "Hg

Humidity: 89%

Dew point: 72 °F

Location of Khan YunisLocation

Historic Weather in Khan Yunis — Graph

°F

Khan Yunis temperature yesterday

Maximum temperature yesterday: 90 °F (at 12:00 PM)
Minimum temperature yesterday: 73 °F (at 4:00 AM)
Average temperature yesterday: 83 °F

Past Weeks' High & Low Weather Summary

 TemperatureHumidityPressure
High93 °F (Aug 27, 1:00 PM)100% (Aug 15, 2:00 AM)29.95 "Hg (Aug 15, 2:00 AM)
Low68 °F (Aug 27, 6:00 AM)28% (Aug 27, 1:00 PM)29.62 "Hg (Aug 17, 3:00 PM)
Average82 °F72%29.78 "Hg
* Reported Midnight between Aug 14 and Aug 15 — Midnight between Aug 29 and Aug 30, Khan Yunis, Weather by CustomWeather, © 2014

Note: Actual official high and low records may vary slightly from our data, if they occured in-between our weather recording intervals... More about our weather records

Advertising

Khan Yunis weather history for previous 24 hours

 ConditionsComfort  
Time TempWeatherWind HumidityBarometerVisibility
12:00 AM
Aug 30
75 °FClear.3 mph89%29.80 "Hg10 mi
10:00 PM
Aug 29
79 °FClear.2 mph84%29.80 "Hg10 mi
8:00 PM81 °FClear.5 mph79%29.80 "Hg10 mi
7:00 PM82 °FSunny.5 mph74%29.77 "Hg10 mi
6:00 PM84 °FSunny.6 mph70%29.77 "Hg10 mi
5:00 PM86 °FSunny.7 mph66%29.77 "Hg10 mi
4:00 PM88 °FSunny.7 mph59%29.77 "Hg10 mi
3:00 PM90 °FSunny.12 mph52%29.77 "Hg10 mi
2:00 PM90 °FSunny.7 mph52%29.77 "Hg10 mi
1:00 PM90 °FScattered clouds.5 mph52%29.80 "HgN/A
12:00 PM90 °FScattered clouds.3 mph55%29.80 "HgN/A
11:00 AM88 °FScattered clouds.3 mph52%29.80 "HgN/A
10:00 AM86 °FScattered clouds.5 mph62%29.80 "HgN/A
9:00 AM82 °FSunny.No wind70%29.80 "Hg10 mi
4:00 AM73 °FClear.No wind89%29.77 "Hg10 mi
3:00 AM75 °FClear.No wind89%29.77 "Hg10 mi
2:00 AM75 °FClear.No wind83%29.77 "Hg10 mi
1:00 AM75 °FClear.No wind83%29.77 "Hg10 mi
Weather by CustomWeather, © 2014

See weather overviewHow to use our weather pages